Wind_Speed
12 13 13 11 10 9 9 7 6 7 9 9 8 6 4 3 5 5 5 7 6 6 5 5 4 4 1 1 2 3 5 4 4
12 13 12 12 10 9 8 8 8 9 9 8 6 5 3 6 7 6 7 8 10 11 11 11 7 11 14 5 4 3 5 3 5
13 13 12 11 10 9 9 10 10 9 7 5 4 4 3 7 8 8 7 7 9 9 8 11 13 15 15 14 15 16 13 13 14
14 13 12 12 11 11 10 10 9 7 6 5 5 6 8 8 9 8 7 6 9 10 11 11 11 10 11 12 13 14 12 11 9
14 13 12 12 12 11 10 9 8 7 5 5 5 5 7 7 6 7 7 6 9 9 10 10 10 10 10 10 10 11 11 11 12
14 13 13 12 12 11 9 9 8 8 7 6 6 6 7 6 6 6 6 8 8 9 9 9 7 7 9 10 10 10 10 9 10
15 13 13 13 13 11 10 10 10 8 6 5 4 3 4 4 5 7 5 6 8 8 8 8 8 7 9 9 10 9 9 8 9
19 16 15 15 14 13 12 11 9 7 6 4 3 2 4 4 4 3 4 6 7 6 7 8 7 8 8 8 8 8 8 8 8
24 21 18 17 15 14 12 12 10 7 7 5 3 3 3 4 3 4 6 9 7 7 7 8 8 8 7 7 7 8 8 8 8
25 23 20 18 16 15 14 12 10 8 6 5 4 3 4 5 4 4 5 9 8 7 7 7 6 6 6 6 7 7 7 8 8
25 23 22 19 17 15 14 13 11 9 6 6 4 3 4 5 5 5 5 6 7 7 6 5 4 4 5 6 6 6 6 7 8
26 25 24 21 19 18 16 15 13 10 8 7 7 5 4 5 6 5 5 6 6 5 5 4 4 4 5 5 6 6 5 7 7
28 29 26 22 22 20 18 17 14 11 9 7 7 7 6 6 7 7 7 5 5 4 2 0 2 3 5 6 6 7 7 7 7
32 29 28 25 25 24 22 20 16 13 10 7 7 7 6 6 8 9 8 6 4 4 2 2 1 2 6 6 6 7 8 8 8
33 31 29 29 26 26 24 22 17 13 11 8 7 8 7 6 8 9 9 8 5 5 3 2 2 4 7 7 8 8 11 10 8
34 33 32 32 32 31 27 23 17 13 12 8 5 6 7 7 9 9 10 9 8 7 6 5 5 8 8 10 10 10 12 10 11
39 38 37 35 36 33 31 27 20 13 14 7 4 1 4 9 9 10 11 11 10 9 7 7 7 9 11 11 11 13 12 12 12
42 42 41 39 39 38 35 30 25 17 15 13 5 2 4 2 6 9 11 11 10 9 8 6 9 11 12 12 12 11 12 13 14
42 43 42 43 43 40 38 32 27 21 16 12 12 6 4 3 1 4 9 10 10 9 7 9 11 11 9 9 9 9 10 12 14
42 44 44 43 44 40 36 32 28 25 20 12 8 7 5 4 3 2 3 9 11 12 11 10 8 7 6 9 10 11 13 16 18
Wind_Direction
140 144 149 149 143 137 135 130 124 119 115 119 125 125 106 90 147 114 81 50 41 67 37 5 11 335 272 255 171 291 302 294 303
139 144 149 150 148 145 142 137 123 118 116 118 126 141 115 90 118 103 92 75 61 68 61 62 52 48 50 113 32 336 288 287 276
147 145 146 147 146 144 142 135 130 125 123 127 131 132 138 138 121 115 103 84 65 57 65 66 61 58 59 59 51 49 48 51 50
156 154 155 153 152 151 148 141 136 129 136 139 131 129 125 127 121 116 106 82 72 89 76 68 62 57 54 55 53 52 52 51 54
166 164 163 163 160 158 155 151 146 141 136 127 121 128 153 140 128 116 115 82 97 85 77 73 77 69 61 60 57 53 47 46 45
176 175 171 172 167 163 161 158 152 143 136 123 117 127 135 137 127 116 112 100 99 84 78 80 82 72 62 59 59 56 56 49 45
191 185 181 179 175 172 169 166 164 158 147 154 138 152 151 150 127 118 120 114 108 82 80 83 82 72 63 56 54 55 52 47 40
203 197 192 187 183 181 181 176 175 176 178 182 191 159 160 158 135 118 108 135 116 94 85 83 81 72 62 50 45 43 40 36 29
207 204 198 194 193 191 190 186 181 179 180 191 204 192 183 168 156 128 125 145 127 113 94 86 80 72 60 47 39 35 33 29 23
204 205 204 203 198 199 195 191 189 185 182 185 201 200 187 175 163 147 149 164 133 124 109 96 80 64 49 39 34 25 22 18 13
205 208 210 209 206 199 200 200 194 191 192 193 208 203 188 185 174 166 160 179 163 137 123 99 79 69 49 36 26 18 18 15 7
216 216 214 212 208 202 202 200 199 201 201 199 196 202 192 195 184 182 177 176 179 158 129 97 75 61 42 27 11 5 1 0 359
222 220 218 213 209 208 206 198 199 203 205 198 194 202 207 201 202 194 186 183 178 178 179 308 61 71 27 5 355 354 340 336 337
220 221 219 216 212 211 207 202 205 204 201 194 195 201 207 217 214 197 196 189 190 200 237 316 358 2 358 359 355 340 336 321 316
220 222 221 213 210 205 204 208 203 205 197 186 188 195 210 211 200 205 207 203 209 216 251 272 290 318 332 339 339 335 332 318 307
219 219 218 213 209 209 206 202 204 196 190 169 176 192 204 201 196 208 213 218 222 224 237 254 274 303 310 315 321 325 327 317 305
221 219 217 213 207 207 205 207 194 194 191 178 140 176 220 213 213 213 210 217 225 226 231 240 278 296 304 303 302 306 311 311 303
220 217 219 214 208 207 207 208 207 186 194 203 169 114 219 169 211 220 215 213 210 215 222 257 288 298 302 301 301 303 302 304 300
219 218 220 217 211 210 210 207 208 202 189 192 211 217 160 163 210 208 207 209 210 210 241 282 294 296 299 307 317 336 327 312 303
220 218 219 218 215 212 212 208 204 206 202 188 176 192 189 174 129 202 224 221 222 237 272 291 288 288 297 310 315 325 325 315 307
Height
815 816 817 819 820 822 823 824 824 825 826 826 827 828 828 828 828 829 829 829 829 829 828 828 828 827 827 829 829 829 829 829 828
815 816 818 819 820 822 823 824 825 827 827 828 828 828 829 829 829 830 830 831 830 829 829 829 829 828 828 829 830 829 828 828 828
816 817 819 820 821 823 824 825 826 827 828 828 828 829 829 830 830 831 832 832 831 832 831 831 831 831 831 832 830 829 830 829 828
816 818 820 821 823 824 825 826 827 828 828 828 829 829 829 830 831 833 833 833 832 832 833 833 833 833 834 834 834 832 832 831 830
817 819 821 822 823 825 826 827 828 829 830 829 830 830 831 831 833 832 834 833 834 833 833 834 835 835 835 835 835 834 834 834 833
818 819 821 823 824 825 827 828 829 829 830 830 831 832 832 833 834 834 835 835 835 835 835 836 837 836 837 836 835 835 835 834 834
817 819 821 822 824 826 827 827 828 830 831 830 831 832 832 833 835 835 836 836 837 836 837 837 838 838 837 838 836 836 835 835 835
816 818 820 822 823 825 826 827 828 829 830 830 831 831 832 834 834 836 836 837 837 838 838 837 839 838 839 839 838 837 836 835 835
814 817 819 820 822 824 825 826 827 828 829 830 831 830 832 833 834 836 836 837 838 838 839 838 839 839 839 840 839 838 837 835 834
814 816 818 820 821 823 825 825 827 827 828 829 830 831 831 832 833 835 836 836 837 838 838 839 839 840 840 839 838 838 837 835 834
812 814 817 819 821 822 824 826 826 827 828 829 830 830 831 832 833 833 834 835 836 837 837 837 838 839 839 838 838 837 836 834 833
810 812 814 816 820 821 823 824 826 826 827 828 828 829 830 831 832 833 833 834 836 836 837 837 837 838 838 838 837 836 835 834 832
806 808 812 815 818 820 822 822 824 825 826 827 827 828 829 830 831 832 833 834 835 836 836 837 837 837 837 837 836 836 835 834 832
801 804 809 813 815 818 819 820 822 823 824 826 827 828 828 829 830 831 832 833 834 835 835 836 836 836 836 835 835 834 834 833 831
797 801 805 809 812 814 817 819 820 821 822 823 825 826 827 828 829 831 832 832 833 833 835 835 835 835 835 834 833 832 832 831 830
791 795 799 803 806 809 813 815 817 819 820 822 824 825 827 828 827 828 830 831 831 831 832 833 833 832 832 831 831 831 829 829 828
785 789 793 795 799 804 807 809 812 815 817 819 822 825 826 825 826 826 827 828 830 830 830 830 830 830 829 828 827 827 827 826 825
777 781 785 789 792 796 800 803 805 808 813 815 817 825 823 822 823 825 825 826 827 828 828 828 828 827 825 824 824 823 823 823 822
772 777 780 783 786 789 793 797 800 803 807 812 812 814 814 819 824 823 824 824 825 826 826 826 825 823 822 821 821 820 820 819 818
765 769 775 779 782 784 790 794 795 798 802 806 809 811 813 814 817 822 823 823 823 823 823 822 821 820 819 818 817 816 816 815 813